AIM (31304 NORAD) Tracking and Keplerian Element Data

This shows tracking and keplerian element data for the satellite.

Feedback or suggestion? Click here.




ElementValue
Catalog31304
NameAIM
Epoch Orbit61471
Epoch Day198.66146635
Epoch Year2018
RAAN41.5164
Inclination97.9932
Eccentricity0.0004106
Argument of Perigee216.728
Mean Anonmoly143.3668
Mean Motion15.12696681
Decay Rate2.62E-06
L11 31304U 07015A 18198.66146635 .00000262 00000-0 19054-4 0 9991
L22 31304 97.9932 41.5164 0004106 216.7280 143.3668 15.12696681614715

Live tracking and technical data element details for AIM (NORAD 31304). AIM can be tracked NOW for your location showing map with azimuth and elevation plus other details from your city location.

Track the satellite on the map from your city or location and see movement details for azimuth, elevation, latitude, longitude, range, height, and movement on the map or in text.







IsCatalogInMostPopularTable: catalog: 31304, numindb: 31
Update: records affected: 1



GetName: 31304 AIM

Hit Count: updated at: Fri, 20 Jul 2018 20:36:40 GMT